Tracking 25709 objects as of 24-May-2022
HD Live streaming from Space Station
objects crossing your sky now

BREEZE-M R/B

Track BREEZE-M R/B now!


NORAD ID: 39488
Int'l Code: 2013-077B
Perigee: 36,685.7 km
Apogee: 41,494.4 km
Inclination: 6.6 °
Period: 1,607.8 minutes
Semi major axis: 45461 km
RCS: Unknown
Launch date: December 26, 2013
Source: Commonwealth of Independent States (former USSR) (CIS)
Launch site: TYURATAM MISSILE AND SPACE COMPLEX (TTMTR)

Note: This is a ROCKET BODY
aabbcc
Your satellite tracking list
Your tracking list is empty




NASA's NSSDC Master Catalog

Two Line Element Set (TLE):
1 39488U 13077B   22143.00207479 -.00000189  00000-0  00000-0 0  9990
2 39488   6.6122  69.9074 0528889 151.9759 210.7813  0.89566128 27368
Source of the keplerian elements: AFSPC